IRIDIUM 106

Last updated on Sun Jun 21 2026 00:03:13 GMT+0000 (Coordinated Universal Time)

1 41917U 17003A 26171.30484000 .00000064 00000+0 15722-4 0 9999 2 41917 86.3961 87.2531 0001888 88.0933 272.0479 14.34218046493650
UTC large
Height (km)
Speed (km/s)
/
Latitude / Longitude
Inclination (degrees)
Orbital Period (minutes)
Azimuth
Elevation
Range (km)
Doppler Factor

Next 0 passes for location: London (51.5072 / 0.1276)

No passes found over London.
IRIDIUM 106